[[{"header":{"parameterUnit":"m.s-1","parameterCategory":1,"la1":30.2991,"la2":30.254,"lo1":-89.0895,"lo2":-89.0444,"dy":0.0017,"dx":0.0017,"nx":28,"ny":28,"refTime":"2023-08-03T09:00:00:Z","depth":0,"parameterNumber":2,"parameterNumberName":"U-component_of_WINDS"},"data":[0,0,0,0,0,0,0,0,0,0,0,0,0,0,0,0,0,0,0,0,0,0,0,0,0,0,0,0,0,0,0,0,0,0,0,0,0,0,0,0,0,0,0,0,0,0,0,0,0,0,0,0,0,0,0,0,0,0,-0.1704,-0.1703,0,-0.161,-0.1609,-0.1608,-0.1558,-0.1557,-0.1557,-0.1557,-0.1461,-0.1458,-0.1456,0,0,0,0,0,0,0,0,0,0,0,0,0,-0.1841,-0.1839,-0.1704,-0.1703,-0.1702,-0.161,-0.1609,-0.1608,-0.1558,-0.1557,-0.1557,-0.1557,-0.1461,-0.1458,-0.1455,0,0,0,0,0,0,0,0,0,0,0,0,0,-0.1768,-0.1838,-0.1705,-0.1666,-0.1661,-0.1611,-0.1609,-0.1607,-0.1558,-0.1557,-0.1557,-0.1557,-0.1462,-0.1459,-0.1455,-0.1435,0,0,-0.1444,-0.1442,0,0,0,0,0,0,0,0,-0.1772,-0.1763,-0.1673,-0.1668,-0.1663,-0.1595,-0.1622,-0.155,-0.1558,-0.1597,-0.1557,-0.1557,-0.1505,-0.1498,-0.1481,-0.1431,-0.1427,-0.1443,-0.1441,-0.1439,-0.1438,0,0,0,0,0,0,0,-0.1777,-0.1767,-0.1667,-0.1671,-0.1666,-0.1653,-0.1643,-0.1608,-0.1553,-0.1594,-0.159,-0.1579,-0.1503,-0.1485,-0.1478,-0.1425,-0.1443,-0.144,-0.1438,-0.1436,-0.1355,-0.1355,0,0,0,0,0,0,-0.1789,-0.1771,-0.167,-0.1664,-0.1718,-0.1651,-0.1639,-0.1617,-0.1554,-0.1544,-0.1579,-0.1577,-0.1491,-0.1483,-0.1475,-0.1448,-0.144,-0.1436,-0.1434,-0.1355,-0.1355,-0.1355,0,0,0,0,0,0,-0.1792,-0.178,-0.1674,-0.1717,-0.1702,-0.1649,-0.1625,-0.1616,-0.1597,-0.1543,-0.1533,-0.1571,-0.1491,-0.148,-0.1446,-0.1444,-0.1434,-0.1431,-0.1354,-0.1355,-0.1355,-0.1394,0,0,0,0,0,0,-0.1796,-0.1781,-0.1773,-0.1717,-0.17,-0.1646,-0.1625,-0.1614,-0.1591,-0.1587,-0.1532,-0.1523,-0.149,-0.1451,-0.1442,-0.1438,-0.1428,-0.1354,-0.1354,-0.1355,-0.1392,-0.1395,-0.1397,0,0,0,0,0,-0.1801,-0.1788,-0.1773,-0.1761,-0.1689,-0.1646,-0.1637,-0.1599,-0.1591,-0.1582,-0.1548,-0.1525,-0.1445,-0.1448,-0.1437,-0.1433,-0.1354,-0.1354,-0.1355,-0.1391,-0.1394,-0.1397,0,0,0,0,0,0,-0.1845,-0.178,-0.1763,-0.1731,-0.1695,-0.1638,-0.1626,-0.1604,-0.1569,-0.1567,-0.1521,-0.1509,-0.1479,-0.1452,-0.1457,-0.141,-0.1397,-0.1395,-0.1429,-0.1432,-0.1434,-0.1442,-0.1425,0,0,0,0,0,-0.1851,-0.1822,-0.1766,-0.1744,-0.1727,-0.168,-0.166,-0.1634,-0.1594,-0.1579,-0.1541,-0.1504,-0.1471,-0.145,-0.1416,-0.1388,-0.1376,-0.1379,-0.1382,-0.1384,-0.1383,-0.1367,-0.1368,-0.1355,-0.1355,-0.1355,0,0,-0.1864,-0.1824,-0.1809,-0.1752,-0.1721,-0.1692,-0.1667,-0.1637,-0.1616,-0.1574,-0.154,-0.1511,-0.1466,-0.1435,-0.142,-0.1412,-0.1384,-0.1385,-0.1387,-0.1384,-0.1367,-0.1369,-0.137,-0.1355,-0.1355,-0.1355,0,0,-0.1871,-0.1838,-0.1816,-0.1786,-0.1739,-0.1708,-0.1703,-0.1649,-0.1629,-0.1593,-0.1562,-0.1535,-0.1479,-0.1448,-0.1426,-0.1423,-0.14,-0.1413,-0.1426,-0.1411,-0.1412,-0.1413,-0.1413,-0.1413,-0.1412,-0.1412,-0.1412,0,-0.1893,-0.1848,-0.1808,-0.178,-0.1756,-0.1717,-0.1695,-0.1667,-0.1612,-0.1597,-0.1589,-0.1517,-0.1484,-0.1446,-0.1446,-0.1428,-0.1421,-0.1419,-0.1415,-0.1416,-0.1416,-0.1415,-0.1415,-0.1414,-0.1414,-0.1413,-0.1413,0,-0.1876,-0.1846,-0.1833,-0.1781,-0.1756,-0.1731,-0.1688,-0.1667,-0.1643,-0.1613,-0.1578,-0.1538,-0.1495,-0.1484,-0.1461,-0.1443,-0.1439,-0.1424,-0.141,-0.142,-0.1418,-0.1417,-0.1417,-0.1416,-0.1415,-0.1415,0,0,-0.1909,-0.1836,-0.1832,-0.1808,-0.1754,-0.1729,-0.1703,-0.1662,-0.1645,-0.1608,-0.1585,-0.1539,-0.1525,-0.1499,-0.1472,-0.1458,-0.1459,-0.1444,-0.1443,-0.1449,-0.1438,-0.145,-0.145,-0.1444,-0.1444,-0.1444,-0.1442,0,-0.191,-0.186,-0.1824,-0.1788,-0.176,-0.1723,-0.17,-0.1665,-0.1636,-0.1608,-0.1576,-0.1544,-0.1527,-0.1511,-0.1497,-0.1462,-0.1456,-0.1462,-0.1422,-0.1422,-0.1435,-0.1449,-0.1462,-0.1462,-0.1441,-0.144,-0.144,0,-0.1903,-0.1868,-0.183,-0.1779,-0.1766,-0.1746,-0.1706,-0.1679,-0.1638,-0.1619,-0.159,-0.1562,-0.1533,-0.1522,-0.1482,-0.1486,-0.1468,-0.1449,-0.1448,-0.1443,-0.1432,-0.1445,-0.1461,-0.1461,-0.1439,-0.1439,-0.1439,0,-0.1932,-0.1875,-0.1845,-0.1826,-0.1766,-0.1752,-0.1727,-0.1686,-0.1664,-0.1628,-0.1614,-0.1576,-0.1555,-0.1526,-0.1489,-0.1484,-0.1452,-0.1438,-0.1435,-0.1436,-0.143,-0.1431,-0.1444,-0.1418,-0.1418,-0.1418,-0.1418,0,-0.1936,-0.1915,-0.1857,-0.1839,-0.1814,-0.1772,-0.1748,-0.1719,-0.1683,-0.1659,-0.1625,-0.1603,-0.1555,-0.1527,-0.1497,-0.1469,-0.1459,-0.1443,-0.1435,-0.1446,-0.1448,-0.1434,-0.1433,-0.1418,-0.1418,-0.1418,-0.1418,0,-0.1964,-0.1925,-0.189,-0.1836,-0.1822,-0.1806,-0.176,-0.1741,-0.171,-0.168,-0.167,-0.1623,-0.1588,-0.1548,-0.1501,-0.1481,-0.1455,-0.1443,-0.1469,-0.1464,-0.1464,-0.1465,-0.1468,-0.1467,-0.1442,-0.1442,-0.1442,0,-0.197,-0.1952,-0.1897,-0.1878,-0.1853,-0.1824,-0.1801,-0.1759,-0.1737,-0.169,-0.1677,-0.164,-0.1608,-0.1555,-0.1516,-0.1479,-0.1467,-0.1471,-0.1461,-0.1473,-0.1468,-0.147,-0.1468,-0.1474,-0.1474,-0.1474,-0.1475,0,-0.1984,-0.1966,-0.1934,-0.1896,-0.187,-0.1838,-0.1804,-0.1791,-0.1743,-0.172,-0.1684,-0.166,-0.1611,-0.1575,-0.1534,-0.1508,-0.1484,-0.1478,-0.1476,-0.1487,-0.1502,-0.1495,-0.1476,-0.1478,-0.1478,-0.1478,-0.1477,-0.1477,-0.2001,-0.1984,-0.1943,-0.1909,-0.1879,-0.1849,-0.1829,-0.1796,-0.1766,-0.1723,-0.17,-0.1666,-0.1626,-0.1568,-0.1543,-0.1515,-0.1507,-0.1503,-0.1502,-0.1502,-0.1505,-0.1507,-0.1507,-0.1507,-0.1507,-0.1507,-0.1507,0,-0.2015,-0.1986,-0.1956,-0.191,-0.1884,-0.1863,-0.1825,-0.1804,-0.1774,-0.1739,-0.1708,-0.1668,-0.1633,-0.1592,-0.1554,-0.154,-0.1528,-0.1532,-0.1533,-0.1527,-0.1515,-0.1521,-0.1542,-0.1542,-0.1542,-0.1542,-0.1542,-0.1542,-0.2019,-0.1989,-0.1966,-0.1921,-0.1893,-0.1858,-0.1838,-0.181,-0.1782,-0.1739,-0.171,-0.1683,-0.1645,-0.1605,-0.1572,-0.1561,-0.1549,-0.1556,-0.1542,-0.1531,-0.1528,-0.1525,-0.153,-0.1553,-0.1553,-0.1556,-0.1556,-0.1556]},{"header":{"parameterUnit":"m.s-1","parameterCategory":1,"la1":30.2991,"la2":30.254,"lo1":-89.0895,"lo2":-89.0444,"dy":0.0017,"dx":0.0017,"nx":28,"ny":28,"refTime":"2023-08-03T09:00:00:Z","depth":0,"parameterNumber":3,"parameterNumberName":"V-component_of_WINDS"},"data":[0,0,0,0,0,0,0,0,0,0,0,0,0,0,0,0,0,0,0,0,0,0,0,0,0,0,0,0,0,0,0,0,0,0,0,0,0,0,0,0,0,0,0,0,0,0,0,0,0,0,0,0,0,0,0,0,0,0,4.5183,4.5182,0,4.5131,4.513,4.513,4.5066,4.5065,4.5064,4.5063,4.5008,4.5007,4.5007,0,0,0,0,0,0,0,0,0,0,0,0,0,4.5225,4.5224,4.5183,4.5182,4.5181,4.5131,4.513,4.513,4.5066,4.5065,4.5064,4.5063,4.5008,4.5007,4.5007,0,0,0,0,0,0,0,0,0,0,0,0,0,4.5193,4.5224,4.5183,4.5144,4.514,4.5131,4.513,4.5129,4.5067,4.5065,4.5064,4.5062,4.5008,4.5007,4.5007,4.5031,0,0,4.5004,4.5004,0,0,0,0,0,0,0,0,4.5195,4.5192,4.515,4.5146,4.5142,4.5104,4.5125,4.5096,4.5067,4.5094,4.5063,4.5062,4.5041,4.5037,4.5031,4.5028,4.5026,4.5004,4.5003,4.5003,4.5003,0,0,0,0,0,0,0,4.5197,4.5193,4.5162,4.515,4.5145,4.5128,4.5122,4.5119,4.5076,4.5092,4.5087,4.5082,4.5038,4.5032,4.5029,4.5025,4.5004,4.5003,4.5003,4.5002,4.504,4.5042,0,0,0,0,0,0,4.5206,4.5196,4.5164,4.516,4.5165,4.5129,4.5122,4.5117,4.5076,4.5069,4.5083,4.5079,4.5034,4.503,4.5027,4.5052,4.5003,4.5002,4.5002,4.5039,4.5041,4.5042,0,0,0,0,0,0,4.5207,4.5203,4.5166,4.5177,4.5171,4.513,4.5125,4.5117,4.511,4.507,4.5062,4.5085,4.5032,4.5028,4.5031,4.5049,4.5002,4.5001,4.5037,4.5039,4.5042,4.5104,0,0,0,0,0,0,4.5208,4.5204,4.5213,4.5178,4.517,4.5171,4.5126,4.5117,4.5109,4.5104,4.5069,4.5062,4.5031,4.5032,4.503,4.5047,4.5001,4.5035,4.5038,4.5041,4.51,4.5108,4.5115,0,0,0,0,0,4.521,4.5233,4.5214,4.5211,4.5181,4.5173,4.5169,4.5133,4.5111,4.512,4.5094,4.5063,4.5048,4.5033,4.503,4.5047,4.5034,4.5037,4.5041,4.5097,4.5107,4.5115,0,0,0,0,0,0,4.5271,4.5227,4.5206,4.5218,4.52,4.5162,4.5172,4.5145,4.5132,4.5127,4.5083,4.5076,4.5084,4.5066,4.505,4.5069,4.5036,4.5039,4.508,4.5089,4.5097,4.51,4.5,0,0,0,0,0,4.5286,4.5283,4.5245,4.5259,4.5251,4.5213,4.5208,4.5183,4.5162,4.5153,4.5127,4.5107,4.5098,4.5093,4.5082,4.5098,4.5089,4.5108,4.5116,4.5122,4.5125,4.5131,4.5139,4.5054,4.5053,4.5053,0,0,4.5316,4.5292,4.5293,4.5271,4.5253,4.5251,4.5207,4.5206,4.5204,4.5153,4.5154,4.5134,4.5109,4.5118,4.5121,4.5104,4.5147,4.5126,4.5132,4.5131,4.5136,4.5144,4.5151,4.5056,4.5055,4.5055,0,0,4.5371,4.5352,4.5362,4.5346,4.5321,4.5296,4.5298,4.5265,4.525,4.5251,4.5213,4.5209,4.5194,4.5177,4.5167,4.5216,4.5187,4.5214,4.5253,4.5259,4.5266,4.5272,4.5289,4.5295,4.5217,4.5217,4.5217,0,4.5411,4.5407,4.537,4.5372,4.5363,4.5318,4.5327,4.5313,4.5286,4.528,4.5261,4.5242,4.5222,4.5226,4.5239,4.5232,4.5233,4.5217,4.5268,4.5274,4.5279,4.5294,4.5301,4.522,4.522,4.522,4.5219,0,4.5458,4.5455,4.5466,4.5442,4.5434,4.544,4.5403,4.54,4.5376,4.5352,4.5354,4.5328,4.5311,4.5311,4.5287,4.5312,4.5302,4.5277,4.5243,4.5291,4.5305,4.531,4.5225,4.5224,4.5223,4.5222,0,0,4.5548,4.5504,4.5509,4.5497,4.5466,4.5463,4.5466,4.5451,4.5449,4.5431,4.5433,4.5422,4.5398,4.5386,4.536,4.5366,4.5406,4.534,4.5338,4.5352,4.5432,4.5451,4.5458,4.5387,4.5388,4.5389,4.5434,0,4.5596,4.56,4.5567,4.558,4.5577,4.5534,4.5537,4.5518,4.5497,4.5491,4.5467,4.5459,4.5429,4.5422,4.5426,4.5401,4.5421,4.5397,4.5387,4.5387,4.5393,4.5466,4.5485,4.5529,4.5439,4.544,4.5441,0,4.5652,4.5639,4.5651,4.562,4.5618,4.5621,4.5604,4.5599,4.5577,4.5561,4.5549,4.5519,4.5519,4.5488,4.5488,4.5472,4.5466,4.5452,4.5453,4.545,4.5416,4.5464,4.5542,4.5549,4.5449,4.5448,4.5448,0,4.5716,4.5701,4.5707,4.5698,4.5662,4.5665,4.565,4.5627,4.562,4.5605,4.56,4.5585,4.5577,4.5566,4.5533,4.5513,4.5536,4.5502,4.5522,4.5523,4.5527,4.5527,4.5605,4.5525,4.5525,4.5525,4.5525,0,4.5772,4.5781,4.5735,4.5738,4.5747,4.5709,4.5719,4.57,4.5679,4.5677,4.564,4.5639,4.5596,4.559,4.5564,4.5567,4.5563,4.555,4.5543,4.5553,4.5554,4.5547,4.5543,4.5527,4.5526,4.5526,4.5526,0,4.5845,4.5814,4.5817,4.5783,4.5775,4.5783,4.5753,4.5754,4.5731,4.573,4.5727,4.569,4.5681,4.5647,4.563,4.5612,4.5624,4.561,4.5631,4.5627,4.5648,4.5646,4.5723,4.5731,4.5647,4.5648,4.5649,0,4.5882,4.5888,4.5855,4.5852,4.5839,4.5834,4.5827,4.579,4.5784,4.576,4.5764,4.5752,4.5741,4.5728,4.5699,4.5686,4.5671,4.5699,4.5669,4.5679,4.567,4.567,4.567,4.5705,4.5706,4.5707,4.5708,0,4.5952,4.5937,4.5928,4.5915,4.5907,4.5895,4.588,4.5879,4.5838,4.5833,4.5824,4.5816,4.5798,4.5787,4.5769,4.5752,4.5723,4.5718,4.5722,4.5732,4.5743,4.5737,4.5648,4.5716,4.5715,4.5715,4.5714,4.5714,4.6007,4.6011,4.5988,4.598,4.5965,4.5952,4.5952,4.5929,4.5921,4.5905,4.5884,4.5877,4.5854,4.5827,4.5813,4.5807,4.5791,4.5797,4.5798,4.5799,4.5804,4.5746,4.5804,4.5803,4.5803,4.5803,4.5803,0,4.6074,4.6058,4.6051,4.6032,4.6025,4.6,4.5982,4.5978,4.5974,4.5955,4.5945,4.5935,4.5924,4.5894,4.588,4.5881,4.5867,4.5878,4.5877,4.5874,4.5819,4.5817,4.589,4.5889,4.5889,4.5889,4.5889,4.5889,4.6108,4.6113,4.6095,4.6092,4.6075,4.6069,4.6061,4.6049,4.6034,4.6024,4.6015,4.5997,4.5974,4.5958,4.5946,4.5938,4.5934,4.5949,4.5936,4.5886,4.5878,4.587,4.5867,4.5949,4.5949,4.5991,4.5991,4.5992]}]]